Regional Weather Roundup
Issued by NWS Kansas City/Pleasant Hill, MO

Home | Current Version | Previous Version | Graphics & Text | Print | Product List | Glossary Off
Versions: 1 2 3 4 5 6 7 8 9 10 11 12 13 14 15 16 17 18 19 20 21 22 23 24 25 26 27 28 29 30 31 32 33 34 35 36 37 38 39 40 41 42 43 44 45 46 47 48 49 50

000
ASUS43 KEAX 260204
RWREAX

WEATHER ROUNDUP FOR EASTERN KANSAS AND NORTHWEST MISSOURI
NATIONAL WEATHER SERVICE KANSAS CITY/PLEASANT HILL MO
900 PM CDT FRI JUL 25 2014

KSZ040-057-103>105-MOZ028-029-037-043-260300-
...KANSAS CITY METROPOLITAN AREA...

CITY           SKY/WX    TMP DP  RH WIND       PRES   REMARKS
K.C. INTL      MOCLDY    87  73  62 S15       29.77S HX  94
K.C. DOWNTOWN  PTCLDY    90  73  57 S16       29.76S HX  98
LEES SUMMIT    PTCLDY    87  73  62 S12       29.80R HX  94
OLATHE - IXD   PTCLDY    86  73  65 S14       29.80R HX  93
OLATHE - OJC   PTCLDY    86  74  67 S13G23    29.79S HX  94
LAWRENCE       PTCLDY    89  72  56 S14       29.77R HX  96

$$

MOZ001>008-011>017-020>025-030>033-038>040-044>046-053-054-260300-
...NORTHERN AND CENTRAL MISSOURI...

CITY           SKY/WX    TMP DP  RH WIND       PRES   REMARKS
ST. JOSEPH     CLEAR     86  73  65 S9        29.74R HX  93
MOSBY          CLEAR     88  72  58 S9G16     29.76S HX  94
WHITEMAN AFB   PTCLDY    85  64  48 SW14      29.81S
CLINTON        CLEAR     86  72  62 SW6       29.83S HX  92
SEDALIA        CLEAR     86  69  56 SW10      29.82S HX  90
WARSAW         NOT AVBL
MARSHALL       CLEAR     86  73  66 SW7       29.81S HX  93
CHILLICOTHE      N/A     86  74  67 S9        29.77S HX  94
KIRKSVILLE     CLEAR     74  68  81 E6        29.83S

$$

MOZ041-047>049-056>058-063>065-088>090-097-260300-
...EASTERN AND SOUTHERN MISSOURI...

CITY           SKY/WX    TMP DP  RH WIND       PRES   REMARKS
ST. LOUIS INTL PTCLDY    78  64  61 SE7       29.89R
SPIRIT OF STL  PTCLDY    78  65  63 CALM      29.86R
COLUMBIA       CLEAR     83  71  67 S9        29.83R
JEFFERSON CITY CLEAR     84  70  62 S8        29.82R
HANNIBAL       CLEAR     75  64  69 SE6       29.85S
ROLLA          CLEAR     78  67  68 S14G21    29.88S
LEBANON        CLEAR     79  70  73 S7        29.92S
OSAGE BEACH    CLEAR     82  70  65 S12       29.86S
SPRINGFIELD    CLEAR     81  69  67 S9        29.90S
BRANSON        CLEAR     81  72  74 S7        29.95F
NEVADA         CLEAR     82  72  69 S10G16    29.86S
JOPLIN         CLEAR     83  70  64 S12       29.90R
WEST PLAINS    PTCLDY    77  68  73 S5        29.97R
MALDEN         PTCLDY    75  66  73 S7        29.95S

$$

IAZ060-094-KSZ022-034>040-054-083-096-NEZ052-066-093-260300-
...KANSAS...SOUTHEAST NEBRASKA AND IOWA...

CITY           SKY/WX    TMP DP  RH WIND       PRES   REMARKS
TOPEKA         PTCLDY    93  70  46 S17G28    29.76R HX  99
MANHATTAN      CLEAR     92  68  45 S5        29.74R HX  96
EMPORIA        MOCLDY    88  71  57 S20G25    29.80R HX  94
CHANUTE        CLEAR     84  74  71 S13       29.85R HX  91
WICHITA        PTCLDY    90  60  36 S13       29.79R
OMAHA          MOCLDY    85  76  74 E6        29.73R HX  94
LINCOLN        PTCLDY    89  75  63 N7        29.76R HX  99
FALLS CITY     CLEAR     90  72  55 S7        29.72R HX  97
LAMONI         PTCLDY    76  71  85 E6        29.76F
DES MOINES     PTCLDY    79  71  76 SE7       29.76F

$$



USA.gov is the U.S. government's official web portal to all federal, state and local government web resources and services.